GW4137 Weather Reports


Display with metric or nautical units.
time (UTC)temp
F
wind
direction
speed
MPH
gust
MPH
rain 1hr
in
rain 24hr
in
rain mn
in
humidity
%
barometer
mb
20260905173101 63 332 4.0 10.0 0.00 0.04 0.04 68 1019.8
20260905171605 61 339 3.0 6.0 0.01 0.04 0.04 70 1020.0
20260905170057 60 344 2.0 9.0 0.01 0.04 0.04 73 1019.9
20260905164602 59 328 1.0 5.0 0.01 0.04 0.04 77 1020.1
20260905163054 58 328 0.0 4.0 0.01 0.04 0.04 84 1019.9
20260905161557 57 0 3.0 6.0 0.00 0.03 0.03 88 1019.8
20260905160053 56 331 3.0 5.0 0.01 0.03 0.03 89 1019.8
20260905154601 55 0 0.0 0.0 0.01 0.03 0.03 90 1019.7
20260905153059 55 0 0.0 0.0 0.01 0.03 0.03 91 1019.8
20260905151559 55 0 0.0 4.0 0.01 0.03 0.03 91 1019.6
20260905150104 54 332 2.0 5.0 0.00 0.02 0.02 92 1019.2
20260905144553 53 0 0.0 0.0 0.01 0.02 0.02 92 1019.3
20260905143101 52 332 2.0 9.0 0.01 0.02 0.02 91 1019.2
20260905141558 51 336 4.0 10.0 0.02 0.02 0.02 92 1018.8
20260905140104 51 360 6.0 10.0 0.02 0.02 0.02 91 1018.6
20260905134553 51 293 3.0 8.0 0.01 0.01 0.01 90 1019.3
20260905133100 51 291 4.0 11.0 0.01 0.01 0.01 88 1019.7
20260905131610 52 281 7.0 11.0 0.00 0.00 0.00 86 1019.9
20260905130105 52 281 7.0 12.0 0.00 0.00 0.00 85 1019.4
20260905124558 52 284 0.0 6.0 0.00 0.00 0.00 83 1018.6
20260905123104 52 0 0.0 4.0 0.00 0.00 0.00 81 1018.8
20260905121553 53 283 2.0 7.0 0.00 0.00 0.00 80 1017.8
20260905120106 53 273 3.0 8.0 0.00 0.00 0.00 78 1018.7
20260905114601 53 273 4.0 9.0 0.00 0.00 0.00 77 1018.6
20260905113054 53 280 3.0 10.0 0.00 0.00 0.00 77 1018.1
20260905111612 53 294 6.0 10.0 0.00 0.00 0.00 76 1017.9
20260905110058 53 290 7.0 12.0 0.00 0.00 0.00 77 1017.8
20260905104555 53 284 6.0 11.0 0.00 0.00 0.00 78 1017.7
20260905103054 53 281 6.0 11.0 0.00 0.00 0.00 77 1017.6
20260905101605 53 290 6.0 11.0 0.00 0.00 0.00 77 1017.3
20260905100053 52 283 5.0 13.0 0.00 0.00 0.00 78 1017.5
20260905094553 51 288 3.0 5.0 0.00 0.00 0.00 78 1017.3
20260905093101 52 286 4.0 10.0 0.00 0.00 0.00 77 1017.2
20260905091554 52 283 4.0 9.0 0.00 0.00 0.00 75 1017.4
20260905090059 52 311 2.0 5.0 0.00 0.00 0.00 74 1017.0
20260905084600 51 317 2.0 5.0 0.00 0.00 0.00 77 1016.3
20260905083058 52 0 0.0 2.0 0.00 0.00 0.00 75 1016.5
20260905081603 52 0 0.0 0.0 0.00 0.00 0.00 76 1016.1
20260905080054 52 317 1.0 6.0 0.00 0.00 0.00 76 1015.9
20260905074558 52 0 0.0 0.0 0.00 0.00 0.00 73 1016.7
20260905073103 53 0 0.0 0.0 0.00 0.00 0.00 72 1017.5
20260905071552 54 0 0.0 5.0 0.00 0.00 0.00 70 1017.1
20260905070052 54 318 2.0 8.0 0.00 0.00 0.00 68 1017.0
20260905064551 55 322 4.0 12.0 0.00 0.00 0.00 68 1016.4
20260905063055 55 328 8.0 13.0 0.00 0.00 0.00 69 1016.0
20260905061554 55 327 7.0 12.0 0.00 0.00 0.00 68 1016.3
20260905060053 56 298 4.0 11.0 0.00 0.00 0.00 66 1016.5
20260905054551 56 296 5.0 10.0 0.00 0.00 0.00 65 1016.5
20260905053136 57 0 2.0 8.0 0.00 0.00 0.00 65 1016.4
20260905051554 57 310 4.0 9.0 0.00 0.00 0.00 66 1015.9
20260905050052 58 302 6.0 12.0 0.00 0.00 0.00 65 1015.9
20260905044601 58 326 3.0 6.0 0.00 0.00 0.00 62 1016.4
20260905043056 60 0 0.0 3.0 0.00 0.00 0.00 59 1016.1
20260905041552 61 0 0.0 0.0 0.00 0.00 0.00 55 1015.8
20260905040053 60 0 0.0 4.0 0.00 0.00 0.00 55 1016.0
20260905034559 60 0 0.0 0.0 0.00 0.00 0.00 54 1015.5
20260905033103 61 0 0.0 5.0 0.00 0.00 0.00 52 1015.0
20260905031553 62 338 5.0 10.0 0.00 0.00 0.00 51 1014.6
20260905030053 62 325 5.0 9.0 0.00 0.00 0.00 49 1015.1
20260905024607 62 326 3.0 6.0 0.00 0.00 0.00 50 1014.8
20260905023105 62 0 0.0 4.0 0.00 0.00 0.00 48 1014.3
20260905021553 65 326 2.0 9.0 0.00 0.00 0.00 45 1014.1
20260905020109 66 322 4.0 9.0 0.00 0.00 0.00 43 1014.0
20260905014559 66 321 6.0 15.0 0.00 0.00 0.00 42 1013.5
20260905013053 66 344 11.0 18.0 0.00 0.00 0.00 42 1012.7
20260905011621 67 352 8.0 20.0 0.00 0.00 0.00 41 1012.6
20260905010059 68 331 13.0 20.0 0.00 0.00 0.00 39 1012.1
20260905004600 69 338 14.0 21.0 0.00 0.00 0.00 39 1012.3
20260905003101 69 326 15.0 22.0 0.00 0.00 0.00 38 1012.3
20260905001600 70 319 14.0 23.0 0.00 0.00 0.00 37 1012.5
20260904234558 70 352 12.0 18.0 0.00 0.00 0.00 37 1012.8
20260904233102 72 352 12.0 19.0 0.00 0.00 0.00 34 1013.0
20260904231552 73 340 10.0 21.0 0.00 0.00 0.00 34 1012.8
20260904230057 72 333 16.0 24.0 0.00 0.00 0.00 34 1012.7
20260904224604 72 319 8.0 19.0 0.00 0.00 0.00 35 1012.6
20260904223104 72 307 12.0 19.0 0.00 0.00 0.00 35 1012.6
20260904221607 72 324 12.0 20.0 0.00 0.00 0.00 34 1012.4
20260904214552 72 325 11.0 18.0 0.00 0.00 0.00 35 1012.1
20260904213052 71 282 10.0 22.0 0.00 0.00 0.00 36 1012.1
20260904211558 71 327 13.0 20.0 0.00 0.00 0.00 35 1011.8
20260904210055 71 284 13.0 21.0 0.00 0.00 0.00 36 1011.7
20260904204551 70 311 13.0 22.0 0.00 0.00 0.00 36 1011.6
20260904203059 71 287 11.0 25.0 0.00 0.00 0.00 37 1011.3
20260904201614 70 312 13.0 23.0 0.00 0.00 0.00 38 1011.2
20260904200121 70 294 10.0 21.0 0.00 0.00 0.00 37 1011.0
20260904194610 70 311 10.0 19.0 0.00 0.00 0.00 39 1010.8
20260904193106 70 286 11.0 21.0 0.00 0.00 0.00 38 1010.5
20260904191556 70 282 10.0 16.0 0.00 0.00 0.00 39 1010.1
20260904190110 67 315 11.0 20.0 0.00 0.00 0.00 41 1009.9
20260904184600 68 293 11.0 19.0 0.00 0.00 0.00 40 1010.0
20260904183053 67 286 9.0 17.0 0.00 0.00 0.00 42 1009.9
20260904181550 65 289 10.0 15.0 0.00 0.00 0.00 47 1009.7
20260904180059 63 285 8.0 13.0 0.00 0.00 0.00 51 1009.7
20260904174554 61 281 7.0 13.0 0.00 0.00 0.00 54 1009.6
20260904173130 61 288 8.0 13.0 0.00 0.00 0.00 53 1009.5